| time (UTC) | temp F | wind direction | speed MPH | gust MPH | rain 1hr in | rain 24hr in | rain mn in | humidity % | barometer mb |
| 20260902231525 | 96 | 288 | 14.0 | 0.0 | 0.00 | 0.00 | 0.00 | 7 | 1006.8 |
| 20260902230013 | 97 | 271 | 13.0 | 0.0 | 0.00 | 0.00 | 0.00 | 6 | 1006.9 |
| 20260902224508 | 97 | 288 | 13.0 | 0.0 | 0.00 | 0.00 | 0.00 | 6 | 1006.9 |
| 20260902223008 | 98 | 259 | 13.0 | 0.0 | 0.00 | 0.00 | 0.00 | 5 | 1007.0 |
| 20260902221514 | 98 | 294 | 13.0 | 0.0 | 0.00 | 0.00 | 0.00 | 6 | 1007.1 |
| 20260902220037 | 98 | 253 | 13.0 | 0.0 | 0.00 | 0.00 | 0.00 | 6 | 1007.2 |
| 20260902214505 | 98 | 322 | 11.0 | 0.0 | 0.00 | 0.00 | 0.00 | 6 | 1007.5 |
| 20260902213005 | 98 | 303 | 11.0 | 0.0 | 0.00 | 0.00 | 0.00 | 5 | 1007.6 |
| 20260902211507 | 98 | 306 | 10.0 | 0.0 | 0.00 | 0.00 | 0.00 | 5 | 1007.5 |
| 20260902210002 | 98 | 319 | 9.0 | 0.0 | 0.00 | 0.00 | 0.00 | 5 | 1007.7 |
| 20260902204559 | 98 | 286 | 10.0 | 0.0 | 0.00 | 0.00 | 0.00 | 6 | 1008.0 |
| 20260902203157 | 97 | 284 | 11.0 | 0.0 | 0.00 | 0.00 | 0.00 | 5 | 1008.2 |
| 20260902201555 | 97 | 356 | 4.0 | 0.0 | 0.00 | 0.00 | 0.00 | 5 | 1008.4 |
| 20260902200051 | 96 | 337 | 4.0 | 0.0 | 0.00 | 0.00 | 0.00 | 5 | 1008.7 |
| 20260902194556 | 95 | 202 | 4.0 | 0.0 | 0.00 | 0.00 | 0.00 | 5 | 1008.8 |
| 20260902193048 | 95 | 296 | 3.0 | 0.0 | 0.00 | 0.00 | 0.00 | 5 | 1009.2 |
| 20260902191545 | 94 | 49 | 3.0 | 0.0 | 0.00 | 0.00 | 0.00 | 5 | 1009.5 |
| 20260902190042 | 93 | 41 | 5.0 | 0.0 | 0.00 | 0.00 | 0.00 | 6 | 1009.7 |
| 20260902184552 | 93 | 106 | 3.0 | 0.0 | 0.00 | 0.00 | 0.00 | 6 | 1009.9 |
| 20260902183040 | 92 | 78 | 4.0 | 0.0 | 0.00 | 0.00 | 0.00 | 6 | 1010.1 |
| 20260902181542 | 92 | 59 | 3.0 | 0.0 | 0.00 | 0.00 | 0.00 | 7 | 1010.3 |
| 20260902180045 | 91 | 78 | 4.0 | 0.0 | 0.00 | 0.00 | 0.00 | 7 | 1010.3 |
| 20260902174533 | 90 | 101 | 2.0 | 0.0 | 0.00 | 0.00 | 0.00 | 8 | 1010.5 |
| 20260902173031 | 90 | 135 | 4.0 | 0.0 | 0.00 | 0.00 | 0.00 | 8 | 1010.4 |
| 20260902171530 | 89 | 39 | 3.0 | 0.0 | 0.00 | 0.00 | 0.00 | 9 | 1010.4 |
| 20260902170028 | 89 | 103 | 2.0 | 0.0 | 0.00 | 0.00 | 0.00 | 9 | 1010.4 |
| 20260902164529 | 88 | 138 | 4.0 | 0.0 | 0.00 | 0.00 | 0.00 | 9 | 1010.4 |
| 20260902163025 | 88 | 67 | 2.0 | 0.0 | 0.00 | 0.00 | 0.00 | 9 | 1010.3 |
| 20260902161522 | 87 | 47 | 3.0 | 0.0 | 0.00 | 0.00 | 0.00 | 13 | 1010.3 |
| 20260902160018 | 86 | 35 | 2.0 | 0.0 | 0.00 | 0.00 | 0.00 | 14 | 1010.4 |
| 20260902154525 | 85 | 14 | 2.0 | 0.0 | 0.00 | 0.00 | 0.00 | 15 | 1010.4 |
| 20260902153012 | 84 | 27 | 2.0 | 0.0 | 0.00 | 0.00 | 0.00 | 15 | 1010.3 |
| 20260902151510 | 83 | 73 | 2.0 | 0.0 | 0.00 | 0.00 | 0.00 | 16 | 1010.3 |
| 20260902150010 | 82 | 73 | 2.0 | 0.0 | 0.00 | 0.00 | 0.00 | 16 | 1010.3 |
| 20260902144525 | 81 | 73 | 1.0 | 0.0 | 0.00 | 0.00 | 0.00 | 17 | 1010.3 |
| 20260902143013 | 78 | 197 | 3.0 | 0.0 | 0.00 | 0.00 | 0.00 | 18 | 1010.3 |
| 20260902141515 | 77 | 197 | 4.0 | 0.0 | 0.00 | 0.00 | 0.00 | 20 | 1010.2 |
| 20260902140010 | 75 | 260 | 5.0 | 0.0 | 0.00 | 0.00 | 0.00 | 21 | 1010.0 |
| 20260902134504 | 75 | 202 | 5.0 | 0.0 | 0.00 | 0.00 | 0.00 | 21 | 1009.8 |
| 20260902133002 | 74 | 197 | 6.0 | 0.0 | 0.00 | 0.00 | 0.00 | 22 | 1009.6 |
| 20260902131600 | 73 | 208 | 4.0 | 0.0 | 0.00 | 0.00 | 0.00 | 23 | 1009.6 |
| 20260902124600 | 75 | 218 | 4.0 | 0.0 | 0.00 | 0.00 | 0.00 | 21 | 1009.4 |
| 20260902123100 | 75 | 224 | 5.0 | 0.0 | 0.00 | 0.00 | 0.00 | 21 | 1009.3 |
| 20260902123043 | 75 | 211 | 5.0 | 0.0 | 0.00 | 0.00 | 0.00 | 21 | 1009.3 |
| 20260902121607 | 75 | 224 | 3.0 | 0.0 | 0.00 | 0.00 | 0.00 | 21 | 1009.2 |
| 20260902120055 | 74 | 277 | 3.0 | 0.0 | 0.00 | 0.00 | 0.00 | 20 | 1009.3 |
| 20260902114552 | 75 | 277 | 4.0 | 0.0 | 0.00 | 0.00 | 0.00 | 19 | 1009.2 |
| 20260902113058 | 74 | 277 | 3.0 | 0.0 | 0.00 | 0.00 | 0.00 | 20 | 1009.2 |
| 20260902111551 | 75 | 221 | 3.0 | 0.0 | 0.00 | 0.00 | 0.00 | 19 | 1009.1 |
| 20260902110051 | 75 | 300 | 2.0 | 0.0 | 0.00 | 0.00 | 0.00 | 19 | 1009.1 |
| 20260902104552 | 75 | 300 | 2.0 | 0.0 | 0.00 | 0.00 | 0.00 | 19 | 1009.0 |
| 20260902103043 | 76 | 253 | 3.0 | 0.0 | 0.00 | 0.00 | 0.00 | 18 | 1009.1 |
| 20260902101541 | 76 | 253 | 3.0 | 0.0 | 0.00 | 0.00 | 0.00 | 17 | 1009.2 |
| 20260902100051 | 75 | 253 | 3.0 | 0.0 | 0.00 | 0.00 | 0.00 | 17 | 1009.2 |
| 20260902094604 | 76 | 355 | 2.0 | 0.0 | 0.00 | 0.00 | 0.00 | 16 | 1009.1 |
| 20260902093033 | 78 | 111 | 2.0 | 0.0 | 0.00 | 0.00 | 0.00 | 15 | 1009.0 |
| 20260902091534 | 80 | 111 | 4.0 | 0.0 | 0.00 | 0.00 | 0.00 | 15 | 1009.1 |
| 20260902090029 | 80 | 113 | 5.0 | 0.0 | 0.00 | 0.00 | 0.00 | 15 | 1009.1 |
| 20260902084528 | 79 | 140 | 4.0 | 0.0 | 0.00 | 0.00 | 0.00 | 16 | 1009.1 |
| 20260902083128 | 79 | 177 | 3.0 | 0.0 | 0.00 | 0.00 | 0.00 | 15 | 1009.2 |
| 20260902081523 | 81 | 263 | 4.0 | 0.0 | 0.00 | 0.00 | 0.00 | 15 | 1009.2 |
| 20260902080020 | 82 | 258 | 4.0 | 0.0 | 0.00 | 0.00 | 0.00 | 14 | 1009.3 |
| 20260902074519 | 82 | 211 | 2.0 | 0.0 | 0.00 | 0.00 | 0.00 | 14 | 1009.3 |
| 20260902073018 | 82 | 241 | 4.0 | 0.0 | 0.00 | 0.00 | 0.00 | 13 | 1009.3 |
| 20260902071515 | 83 | 200 | 6.0 | 0.0 | 0.00 | 0.00 | 0.00 | 13 | 1009.1 |
| 20260902070013 | 83 | 293 | 8.0 | 0.0 | 0.00 | 0.00 | 0.00 | 13 | 1009.2 |
| 20260902064512 | 83 | 300 | 5.0 | 0.0 | 0.00 | 0.00 | 0.00 | 13 | 1009.2 |
| 20260902063011 | 83 | 330 | 7.0 | 0.0 | 0.00 | 0.00 | 0.00 | 13 | 1009.1 |
| 20260902061511 | 83 | 303 | 7.0 | 0.0 | 0.00 | 0.00 | 0.00 | 13 | 1008.9 |
| 20260902060010 | 84 | 249 | 10.0 | 0.0 | 0.00 | 0.00 | 0.00 | 13 | 1008.9 |
| 20260902054509 | 84 | 235 | 14.0 | 0.0 | 0.00 | 0.00 | 0.00 | 14 | 1008.6 |
| 20260902053010 | 84 | 246 | 14.0 | 0.0 | 0.00 | 0.00 | 0.00 | 14 | 1008.9 |
| 20260902051512 | 84 | 248 | 15.0 | 0.0 | 0.00 | 0.00 | 0.00 | 15 | 1008.9 |
| 20260902050008 | 84 | 267 | 14.0 | 0.0 | 0.00 | 0.00 | 0.00 | 15 | 1009.0 |
| 20260902044507 | 84 | 275 | 14.0 | 0.0 | 0.00 | 0.00 | 0.00 | 16 | 1008.9 |
| 20260902043007 | 84 | 254 | 15.0 | 0.0 | 0.00 | 0.00 | 0.00 | 17 | 1008.8 |
| 20260902041506 | 84 | 260 | 13.0 | 0.0 | 0.00 | 0.00 | 0.00 | 18 | 1008.8 |
| 20260902040003 | 84 | 267 | 13.0 | 0.0 | 0.00 | 0.00 | 0.00 | 17 | 1008.6 |
| 20260902034502 | 85 | 264 | 14.0 | 0.0 | 0.00 | 0.00 | 0.00 | 18 | 1008.5 |
| 20260902033002 | 85 | 292 | 13.0 | 0.0 | 0.00 | 0.00 | 0.00 | 20 | 1008.3 |
| 20260902031501 | 85 | 285 | 12.0 | 0.0 | 0.00 | 0.00 | 0.00 | 21 | 1008.1 |
| 20260902030106 | 85 | 291 | 12.0 | 0.0 | 0.00 | 0.00 | 0.00 | 22 | 1007.8 |
| 20260902024601 | 86 | 258 | 12.0 | 0.0 | 0.00 | 0.00 | 0.00 | 22 | 1007.6 |
| 20260902021559 | 88 | 298 | 12.0 | 0.0 | 0.00 | 0.00 | 0.00 | 24 | 1007.1 |
| 20260902020104 | 88 | 304 | 15.0 | 0.0 | 0.00 | 0.00 | 0.00 | 24 | 1007.0 |
| 20260902014558 | 89 | 265 | 16.0 | 0.0 | 0.00 | 0.00 | 0.00 | 24 | 1006.8 |
| 20260902013058 | 91 | 308 | 15.0 | 0.0 | 0.00 | 0.00 | 0.00 | 22 | 1006.6 |
| 20260902011557 | 92 | 296 | 15.0 | 0.0 | 0.00 | 0.00 | 0.00 | 20 | 1006.6 |
| 20260902010106 | 93 | 321 | 15.0 | 0.0 | 0.00 | 0.00 | 0.00 | 19 | 1006.4 |
| 20260902004556 | 95 | 297 | 15.0 | 0.0 | 0.00 | 0.00 | 0.00 | 16 | 1006.5 |
| 20260902003055 | 96 | 314 | 13.0 | 0.0 | 0.00 | 0.00 | 0.00 | 15 | 1006.4 |
| 20260902001605 | 96 | 304 | 12.0 | 0.0 | 0.00 | 0.00 | 0.00 | 18 | 1006.4 |
| 20260902000054 | 97 | 254 | 13.0 | 0.0 | 0.00 | 0.00 | 0.00 | 15 | 1006.4 |
| 20260901234553 | 98 | 266 | 13.0 | 0.0 | 0.00 | 0.00 | 0.00 | 14 | 1006.5 |
| 20260901233056 | 99 | 298 | 8.0 | 0.0 | 0.00 | 0.00 | 0.00 | 13 | 1006.5 |